NAVSTAR 49 (USA 154) (26605 NORAD) Tracking and Keplerian Element Data

This shows tracking and keplerian element data for the satellite.

Feedback or suggestion? Click here.




ElementValue
Catalog26605
NameNAVSTAR 49 (USA 154)
Epoch Orbit17751
Epoch Day34.56154005
Epoch Year2025
RAAN114.6637
Inclination55.3627
Eccentricity0.0162022
Argument of Perigee261.544
Mean Anonmoly274.1575
Mean Motion2.0056308
Decay Rate-5E-08
L11 26605U 00071A 25034.56154005 -.00000005 00000+0 00000+0 0 9991
L22 26605 55.3627 114.6637 0162022 261.5440 274.1575 2.00563080177518



Live tracking and technical data element details for NAVSTAR 49 (USA 154) (NORAD 26605). NAVSTAR 49 (USA 154) can be tracked NOW for your location showing map with azimuth and elevation plus other details from your city location.







IsCatalogInMostPopularTable: catalog: 26605, numindb: 361
Update: records affected: 1



GetName: 26605 NAVSTAR 49 (USA 154)

Hit Count: updated at: Thu, 15 May 2025 19:40:55 GMT